Regional Weather Roundup
Issued by NWS Raleigh/Durham, NC

Home | Current Version | Previous Version | Text Only | Print | Product List | Glossary On
Versions: 1 2 3 4 5 6 7 8 9 10 11 12 13 14 15 16 17 18 19 20 21 22 23 24 25 26 27
000
ASUS42 KRAH 030310
RWRRAH
NORTH CAROLINA WEATHER ROUNDUP
NATIONAL WEATHER SERVICE RALEIGH NC
1100 PM EDT MON MAY 02 2016

NOTE: "FAIR" INDICATES FEW OR NO CLOUDS BELOW 12,000 FEET WITH NO
SIGNIFICANT WEATHER AND/OR OBSTRUCTIONS TO VISIBILITY.

NCZ001-053-055-056-065-067-030400-
WESTERN NORTH CAROLINA

CITY           SKY/WX    TMP DP  RH WIND       PRES   REMARKS
ASHEVILLE      LGT RAIN  61  58  90 E5        29.96F
JEFFERSON      LGT RAIN  53  53  97 CALM      30.00R
MORGANTON      LGT RAIN  63  63 100 CALM      29.99R
HICKORY        HVY RAIN  62  62 100 CALM      29.95R FOG
RUTHERFORDTON  CLOUDY    72  66  82 W7        29.93R THUNDER
MOUNT AIRY     RAIN      63  61  93 SE3       29.97R
BOONE          CLOUDY    55  55  99 E5        30.00R THUNDER
$$

NCZ021-022-025-041-071-084-088-030400-
CENTRAL NORTH CAROLINA

CITY           SKY/WX    TMP DP  RH WIND       PRES   REMARKS
CHARLOTTE      CLOUDY    71  64  78 S12G20    29.92S
GREENSBORO     TSTM      62  62 100 N9        29.93R FOG
WINSTON-SALEM  HVY RAIN  61  59  93 N7        29.97R FOG
RALEIGH-DURHAM CLOUDY    68  62  81 S15       29.92F
FORT BRAGG     NOT AVBL
FAYETTEVILLE   LGT RAIN  67  65  93 S9        29.95F
BURLINGTON     MOCLDY    66  62  87 W5        29.91S
LAURINBURG     CLOUDY    68  65  90 S10       29.96F
$$

NCZ011-015-027-028-043-044-047-080-103-030400-
NORTHEASTERN NORTH CAROLINA

CITY           SKY/WX    TMP DP  RH WIND       PRES   REMARKS
ROCKY MT-WILSO CLOUDY    67  64  90 S12       29.92R
GREENVILLE     DRIZZLE   68  64  88 SW10      29.96F
WASHINGTON     CLOUDY    69  66  89 SW8       29.96F
ELIZABETH CITY CLOUDY    70  66  87 S12       29.93F
MANTEO         NOT AVBL
CAPE HATTERAS  CLOUDY    71  69  93 SW9       29.99R
$$

NCZ078-087-090-091-093-098-101-030400-
SOUTHEASTERN NORTH CAROLINA

CITY           SKY/WX    TMP DP  RH WIND       PRES   REMARKS
LUMBERTON      CLOUDY    68  66  93 SE5       29.97F
GOLDSBORO      NOT AVBL
KINSTON        LGT RAIN  66  65  94 S9        29.96F
KENANSVILLE    LGT RAIN  65  64  97 CALM      30.00F
NEW BERN       CLOUDY    71  67  87 SW6       30.00S
CHERRY POINT   CLOUDY    73  68  84 SW9       30.00S
BEAUFORT       CLOUDY    71  69  93 SW13      30.00S
JACKSONVILLE   CLOUDY    71  68  90 W6        29.99S
WILMINGTON     MOCLDY    74  68  81 S9        30.00S
$$





USA.gov is the U.S. government's official web portal to all federal, state and local government web resources and services.